Location: 5810 Zion Rd, Cleves, OH 45002, USA
(39.1922°N, 84.7113°W)
Time: 21:05:59
(UTC-05:00)

Courier 1B Rocket - Visible Passes

Search period start: 26 February 2021 00:00
Search period end: 08 March 2021 00:00
Orbit: 920 x 1202 km, 28.3° (Epoch: 26 February)

Date Brightness Start Highest point End Pass type
(mag) Time Alt. Az. Time Alt. Az. Time Alt. Az.
26 Feb 6.3 19:55:44 10° WSW 20:02:44 36° S 20:06:55 21° SE visible
26 Feb 7.1 21:49:37 10° WSW 21:53:18 22° SW 21:53:18 22° SW visible
27 Feb 6.4 18:54:39 10° WSW 19:01:38 37° S 19:08:37 10° ESE visible
27 Feb 6.5 20:48:06 10° WSW 20:54:41 30° SSW 20:56:05 28° S visible
28 Feb 6.5 19:46:48 10° WSW 19:53:38 34° S 19:58:55 16° SE visible
28 Feb 7.1 21:41:09 10° WSW 21:45:17 19° SW 21:45:17 19° SW visible
01 Mar 6.5 18:45:39 10° WSW 18:52:32 36° S 18:59:32 10° ESE visible
01 Mar 6.8 20:39:25 10° WSW 20:45:32 25° SSW 20:48:09 21° S visible
02 Mar 6.7 19:37:59 10° WSW 19:44:31 30° SSW 19:51:02 10° SE visible
02 Mar 7.3 21:33:11 10° WSW 21:37:17 15° SSW 21:37:25 15° SSW visible
03 Mar 7.2 20:31:00 10° WSW 20:36:21 20° SSW 20:40:21 14° SSE visible
04 Mar 7.0 19:29:21 10° WSW 19:35:22 25° SSW 19:41:27 10° SSE visible
04 Mar 7.6 21:27:30 10° SW 21:28:02 10° SSW 21:28:34 10° SSW visible
05 Mar 7.5 20:23:08 10° WSW 20:27:09 15° SSW 20:31:10 10° S visible
06 Mar 7.4 19:21:02 10° WSW 19:26:12 20° SSW 19:31:28 10° SSE visible
